Location: Astronomy Adventures Observing Site
(35.3995°N, 106.1279°W)
Time: 19:52:59
(UTC-07:00)

X-37B - Visible Passes

Search period start: 20 January 2022 00:00
Search period end: 30 January 2022 00:00
Orbit: 334 x 337 km, 45.0° (Epoch: 11 January)

Date Brightness Start Highest point End Pass type
(mag) Time Alt. Az. Time Alt. Az. Time Alt. Az.
23 Jan 2.7 18:26:31 10° SSE 18:27:40 12° SE 18:27:47 12° SE visible
24 Jan 1.1 18:45:14 10° SSW 18:47:44 36° SSE 18:47:44 36° SSE visible
25 Jan 1.4 19:05:28 10° WSW 19:07:37 45° W 19:07:37 45° W visible
26 Jan 1.2 17:50:40 10° SSW 17:53:18 36° SE 17:55:57 10° ENE visible
26 Jan 3.2 19:26:23 10° W 19:27:26 17° WNW 19:27:26 17° WNW visible
27 Jan 0.5 18:10:53 10° WSW 18:13:42 64° NNW 18:15:56 15° NE visible
28 Jan 2.0 18:31:48 10° W 18:34:15 26° NNW 18:35:38 18° NNE visible
29 Jan 2.6 18:53:09 10° NW 18:54:59 16° NNW 18:55:16 15° N visible
